Temperature
13 13 13 13 12 12 12 12 12 12 12 12 12 12 12 12 12 12 12 12 12 12 12 12 12 12 13 13 13 13 13 13 13 14 14 14 14 14 15 15 15 15 15
13 13 13 13 13 12 12 12 12 12 12 12 12 12 12 12 12 12 12 12 12 12 12 12 12 12 12 12 13 13 13 13 13 13 14 14 14 14 14 15 15 15 15
13 13 13 13 13 12 12 12 12 12 12 12 12 12 12 12 12 12 12 12 12 12 12 12 12 12 12 12 12 13 13 13 13 13 13 14 14 14 14 14 14 14 14
13 13 13 13 13 13 12 12 12 12 12 12 12 12 12 12 12 12 12 12 12 12 12 12 12 12 12 12 12 12 13 13 13 13 13 13 13 13 14 14 14 14 14
14 13 13 13 13 13 13 13 12 12 12 12 12 12 12 12 12 12 12 12 12 12 12 12 12 12 12 12 12 12 13 13 13 13 13 13 13 13 13 13 13 13 13
14 14 14 13 13 13 13 13 13 13 12 12 12 12 12 12 12 12 12 12 12 12 12 12 12 12 12 12 12 12 12 13 13 13 13 13 13 13 13 13 13 13 13
14 14 14 14 13 13 13 13 13 13 13 13 12 12 12 12 12 12 12 12 12 12 12 12 12 12 12 12 12 12 12 12 12 13 13 13 13 13 13 13 13 13 13
15 14 14 14 14 14 13 13 13 13 13 13 13 12 12 12 12 12 12 12 12 12 12 12 12 12 12 12 12 12 12 12 12 12 12 12 12 12 13 13 12 12 12
15 15 14 14 14 14 14 13 13 13 13 13 13 13 13 12 12 12 12 12 12 12 12 12 12 12 12 12 12 12 12 12 12 12 12 12 12 12 12 12 12 12 12
15 15 15 14 14 14 14 14 13 13 13 13 13 13 13 13 12 12 12 12 12 12 12 12 12 12 12 12 12 12 12 12 12 12 12 12 12 12 12 12 12 12 12
15 15 15 14 14 14 14 14 14 13 13 13 13 13 13 13 13 12 12 12 12 12 12 12 12 12 12 12 12 12 12 12 12 12 12 12 12 12 12 12 12 12 12
15 15 15 15 14 14 14 14 14 14 13 13 13 13 13 13 13 13 12 12 12 12 12 12 12 12 12 12 12 12 12 12 12 12 12 12 12 12 12 12 12 12 12
15 15 15 14 14 14 14 14 14 13 13 13 13 13 13 13 13 13 12 12 12 12 12 12 12 12 12 12 11 11 11 11 11 11 11 11 11 11 11 11 11 11 12
15 15 14 14 14 14 14 14 13 13 13 13 13 13 13 13 13 13 12 12 12 12 12 12 12 11 11 11 11 11 11 11 11 11 11 11 11 11 11 11 11 11 11
15 15 14 14 14 14 13 13 13 13 13 13 13 13 13 13 12 12 12 12 12 12 12 12 12 11 11 11 11 11 11 11 11 11 11 11 11 11 11 11 11 11 11
15 14 14 14 13 13 13 13 12 12 12 12 12 12 12 12 12 12 12 12 12 12 11 11 11 11 11 11 11 11 11 10 10 10 10 10 10 10 10 10 10 10 10
14 14 14 13 13 13 12 12 12 12 11 11 11 11 12 12 12 12 12 11 11 11 11 11 11 10 10 10 10 10 10 10 10 10 10 10 10 10 10 10 10 10 10
14 13 13 13 12 12 12 11 11 11 11 11 11 11 11 11 11 11 11 11 11 11 10 10 10 10 10 9 10 10 9 9 9 9 9 9 9 9 9 9 9 9 9
13 13 12 12 12 11 11 11 11 10 10 10 10 10 10 10 10 10 10 10 10 10 9 9 9 9 9 9 9 9 9 9 9 9 9 9 9 9 9 9 9 9 9
12 12 12 11 11 11 10 10 10 10 10 10 9 9 9 9 9 9 9 9 8 8 8 8 8 8 8 8 8 8 8 8 8 8 8 8 8 8 8 8 8 8 8
12 11 11 10 10 10 9 9 9 9 9 9 8 8 8 8 8 8 8 7 7 7 7 7 7 7 7 7 7 7 7 7 7 7 7 7 7 7 8 8 8 8 8
11 10 10 10 9 9 9 8 8 8 8 8 7 7 7 7 7 7 7 6 6 6 6 6 6 6 6 6 6 6 6 6 6 6 6 6 6 7 7 7 7 7 7
10 9 9 9 8 8 8 8 7 7 7 7 6 6 6 6 6 6 5 5 5 5 5 5 5 5 5 5 5 5 5 5 5 5 5 5 5 5 6 6 6 6 6
9 9 8 8 8 7 7 7 7 6 6 6 6 5 5 5 5 5 4 4 4 4 4 4 4 4 4 4 4 4 4 4 4 4 4 4 4 4 4 4 5 5 5
8 8 8 7 7 7 6 6 6 6 5 5 5 5 4 4 4 4 4 4 4 3 3 3 3 3 3 3 3 3 3 3 3 3 3 3 3 3 3 3 3 4 4
7 7 7 7 6 6 6 6 5 5 5 5 4 4 4 4 3 3 3 3 3 3 3 3 3 3 3 3 3 2 2 2 2 2 2 2 2 2 2 2 2 2 3
Wind_Speed
3 3 3 4 3 3 4 5 5 4 5 5 5 4 4 3 3 1 1 1 1 1 1 2 2 2 2 2 2 2 3 3 3 2 1 1 2 3 2 4 6 7 8
3 3 3 3 3 4 4 5 4 4 5 4 4 4 4 3 3 2 2 1 1 1 2 2 2 2 2 2 2 2 2 3 3 3 2 1 2 3 3 3 4 5 6
3 2 3 3 3 4 4 4 4 4 5 5 4 4 4 4 3 3 2 1 1 1 1 2 2 2 2 2 2 2 2 2 3 3 2 2 2 2 2 2 3 2 4
3 3 3 4 4 4 4 4 4 4 4 5 5 4 4 4 3 3 2 1 1 1 1 1 1 2 3 3 2 3 3 3 2 2 2 2 2 2 2 2 2 2 3
3 3 4 4 3 3 3 4 4 4 4 4 5 5 5 4 3 3 2 1 1 2 2 1 1 1 2 2 2 2 3 3 2 2 2 2 2 2 2 2 3 2 2
4 5 4 3 3 3 4 4 4 4 4 4 4 5 5 4 6 5 3 1 1 1 2 3 2 2 2 2 2 2 3 4 4 3 2 3 4 3 2 3 2 2 2
4 4 4 3 3 4 3 3 4 4 4 4 5 5 5 6 7 6 5 2 1 1 2 2 3 3 3 2 2 2 2 3 5 5 5 5 4 5 4 4 4 4 3
4 4 4 3 4 3 3 4 4 3 3 3 4 5 5 6 7 6 5 3 2 2 2 2 2 3 3 2 2 2 2 3 4 4 5 6 5 5 5 5 4 2 1
4 5 4 4 4 3 3 4 3 3 3 3 4 4 4 6 8 6 4 2 2 3 3 2 2 2 4 3 2 2 3 3 3 4 4 5 6 6 5 3 3 3 2
6 5 4 4 4 4 4 4 2 2 3 4 4 4 4 5 8 7 4 1 1 3 3 3 4 3 4 4 1 2 3 4 3 3 3 3 3 4 6 6 5 5 3
4 4 3 3 4 4 3 2 2 2 3 3 4 4 4 5 7 7 4 0 1 2 2 3 4 6 6 5 3 2 4 4 3 2 2 2 2 2 3 4 5 5 5
3 3 2 2 2 2 2 2 2 2 2 4 4 5 4 4 4 5 5 3 1 1 2 3 3 6 7 6 4 4 5 3 2 2 2 2 2 2 2 3 4 4 4
3 2 1 1 1 1 1 2 1 1 1 2 2 4 5 4 4 6 6 5 3 0 1 3 5 6 6 5 6 6 5 2 2 2 2 2 2 2 2 1 2 2 2
4 2 1 1 0 1 0 0 0 1 1 2 2 3 4 4 4 4 3 3 3 2 2 4 6 7 5 5 5 5 4 2 1 2 2 2 2 1 2 1 2 1 2
4 2 1 1 1 1 1 0 0 0 1 1 1 1 2 4 5 4 2 1 1 1 2 3 4 5 6 5 5 5 4 4 3 3 2 3 2 2 2 1 1 1 2
4 3 2 1 1 1 1 2 3 2 5 5 3 2 1 2 5 6 5 4 5 5 4 4 4 4 4 5 5 5 4 4 4 4 3 3 3 3 3 2 2 2 3
5 4 3 2 2 1 2 2 2 4 6 7 8 8 7 7 8 7 7 7 8 7 5 4 4 4 4 4 4 4 4 4 4 4 4 4 4 3 3 3 3 3 4
5 5 4 3 2 2 2 2 2 2 3 3 6 9 9 10 11 10 8 7 7 6 4 4 4 4 4 4 4 4 4 5 4 4 4 4 4 4 4 4 4 4 5
5 4 3 3 3 3 3 3 3 3 3 2 3 5 8 8 10 11 10 7 5 5 4 4 4 4 4 4 4 4 4 4 5 5 5 5 5 4 5 5 5 6 6
5 8 7 4 4 3 3 3 3 3 3 3 3 3 4 5 5 6 6 5 5 4 4 4 4 5 5 5 5 5 5 5 5 5 5 5 5 5 6 7 6 6 6
5 6 9 6 4 4 4 3 3 3 3 3 2 3 5 4 4 4 4 4 4 3 3 3 3 4 4 4 4 5 5 5 5 6 6 6 6 6 6 7 7 7 7
6 5 5 5 4 4 4 3 3 3 3 3 2 3 6 4 3 3 3 3 3 3 3 3 3 3 4 4 4 5 5 6 6 7 7 7 7 7 7 7 8 8 7
6 6 5 5 4 5 5 3 3 3 3 2 2 2 3 3 3 3 3 3 3 3 3 3 3 3 3 4 4 4 5 6 7 7 8 8 8 8 8 8 9 10 9
7 7 6 5 4 4 4 3 3 3 3 2 2 2 2 2 2 2 2 2 3 3 3 3 3 5 6 5 6 6 7 8 9 8 9 9 9 9 9 9 10 10 10
6 6 6 5 5 4 4 3 3 2 2 2 2 1 1 1 1 1 2 2 3 3 4 4 4 5 7 7 8 9 12 14 14 12 10 8 10 10 10 11 10 11 11
6 6 5 5 5 4 4 4 3 3 2 2 1 1 0 0 1 1 2 2 3 3 4 4 6 7 9 9 10 13 14 15 16 16 13 9 10 10 11 10 13 11 12
Wind_Direction
269 278 298 304 309 317 320 318 319 321 329 332 335 337 340 344 349 353 309 270 258 266 254 234 246 230 216 213 194 189 199 196 228 262 256 253 227 225 217 206 211 206 208
258 271 287 301 317 326 324 324 326 328 332 333 335 342 343 345 345 342 319 314 274 270 271 250 252 238 228 217 196 197 200 201 210 243 258 241 235 219 212 208 208 204 201
250 265 288 302 311 313 316 324 331 333 336 341 345 343 340 337 335 333 323 316 296 272 258 243 248 225 233 224 209 210 214 212 208 222 246 240 242 220 202 210 202 202 200
233 251 271 282 289 295 307 321 328 332 336 338 340 338 334 333 332 332 342 349 352 342 319 275 251 231 229 220 216 216 211 208 211 219 229 237 241 235 196 206 215 207 205
224 245 261 275 285 293 308 316 323 331 333 333 340 344 343 339 338 341 341 346 359 354 347 333 300 290 251 221 216 211 205 206 204 212 221 225 230 214 209 202 215 221 224
218 242 261 277 285 289 297 310 321 326 330 338 341 340 341 339 346 360 3 358 349 347 337 335 329 335 327 325 296 240 214 206 207 207 219 221 231 222 211 202 201 208 239
221 244 256 262 272 281 293 307 311 314 324 330 332 336 331 325 342 358 9 22 15 346 335 337 344 347 350 325 306 304 279 251 225 208 216 225 220 212 197 205 209 210 221
223 243 248 248 261 277 291 293 295 302 307 311 319 325 325 328 345 355 5 22 21 358 344 324 321 324 332 330 321 316 305 288 261 239 227 231 228 217 207 208 208 202 219
226 240 242 235 248 266 277 280 281 293 302 300 302 318 322 322 339 349 355 8 5 346 340 339 327 314 324 337 334 317 314 309 292 262 253 247 241 230 206 184 186 198 229
228 235 236 225 229 246 259 270 270 268 283 300 308 309 309 311 328 342 348 25 349 332 335 336 338 333 329 339 331 307 306 305 312 318 312 300 263 233 212 204 200 204 209
224 226 229 226 230 239 255 259 268 283 301 311 313 314 311 308 321 337 344 32 257 309 324 327 327 337 340 339 333 291 285 297 301 298 300 301 289 247 227 216 210 207 212
192 202 222 233 240 234 240 272 277 292 314 319 325 327 327 322 321 328 338 330 237 227 296 308 320 337 344 345 344 329 322 323 314 315 310 298 288 276 254 234 224 223 224
153 181 219 244 257 261 235 270 302 314 311 317 328 327 325 331 331 336 337 341 339 238 291 329 344 353 356 359 1 357 355 358 343 331 312 294 278 275 277 265 245 221 223
156 179 181 168 324 349 324 253 238 288 289 307 316 316 320 330 333 334 333 340 356 8 5 7 13 18 19 5 1 2 2 349 334 313 307 301 299 288 272 259 248 233 237
158 165 156 155 149 48 35 29 178 265 194 218 278 287 324 330 330 337 350 359 14 30 40 33 28 21 19 13 6 359 356 359 355 337 325 324 320 311 299 288 257 246 238
153 156 154 148 136 116 84 40 34 57 45 55 48 39 1 345 352 17 37 50 50 64 71 46 29 19 12 4 359 354 354 353 344 337 331 321 317 312 306 296 273 260 258
156 157 147 142 140 133 124 108 52 26 39 43 39 38 41 32 31 34 46 58 55 67 68 46 27 11 1 355 352 348 344 338 336 339 336 329 322 315 307 297 284 271 264
146 146 142 140 137 130 125 118 107 81 44 18 18 31 38 43 44 43 50 66 54 50 49 38 20 7 360 354 351 348 343 345 349 346 341 335 329 320 310 298 287 279 277
142 142 134 126 119 117 112 103 95 87 77 43 22 23 29 41 48 46 53 60 57 44 32 24 15 6 360 353 347 345 345 346 347 345 340 335 330 322 312 304 295 284 277
137 138 131 121 110 104 101 101 97 92 82 64 44 24 16 43 51 41 43 47 48 39 27 20 14 10 5 359 355 355 356 357 355 350 341 333 326 317 308 303 299 295 285
129 130 126 112 108 108 106 106 104 100 91 75 50 38 57 67 59 47 42 38 33 24 18 15 10 7 6 1 1 3 2 357 351 344 338 332 328 321 313 306 299 294 292
129 125 123 122 117 112 110 108 107 104 98 87 59 45 53 65 62 51 37 27 20 15 13 14 11 5 1 360 358 358 354 350 346 340 333 327 323 318 315 310 306 303 298
131 128 123 121 121 121 113 108 109 109 103 92 80 67 58 59 53 43 28 15 9 6 3 6 2 354 348 350 350 350 344 338 331 326 325 323 321 317 313 309 306 305 301
136 135 133 131 126 125 126 124 121 119 115 105 89 77 66 56 47 32 14 1 359 354 349 347 342 339 338 340 339 338 335 332 330 324 318 315 315 314 310 307 305 302 299
139 139 138 139 140 141 140 138 137 133 127 124 116 101 78 57 30 5 353 349 347 344 341 341 339 337 334 333 334 332 329 329 328 326 319 311 308 307 307 304 302 301 298
142 142 143 145 148 152 153 155 156 154 152 151 149 155 167 219 310 326 336 339 335 329 326 328 328 328 328 328 326 325 325 325 323 322 319 308 304 302 303 300 298 296 294
Height
1502 1501 1499 1498 1496 1494 1492 1490 1488 1485 1483 1480 1478 1476 1474 1473 1472 1471 1471 1471 1472 1472 1472 1473 1474 1475 1475 1476 1477 1478 1479 1481 1481 1482 1484 1485 1486 1488 1490 1491 1493 1495 1497
1501 1500 1499 1497 1495 1494 1492 1490 1487 1485 1483 1481 1479 1476 1474 1473 1472 1471 1470 1470 1470 1470 1471 1471 1471 1472 1473 1474 1475 1476 1477 1478 1479 1480 1480 1482 1483 1484 1486 1488 1489 1491 1493
1500 1499 1498 1496 1495 1493 1491 1489 1487 1485 1483 1481 1479 1477 1475 1473 1472 1470 1470 1469 1469 1469 1469 1469 1470 1470 1471 1472 1473 1473 1474 1476 1477 1477 1478 1479 1480 1481 1482 1484 1485 1487 1489
1499 1498 1497 1496 1494 1493 1491 1489 1487 1485 1483 1481 1479 1477 1475 1474 1472 1470 1469 1469 1468 1468 1468 1468 1468 1469 1469 1470 1471 1471 1472 1473 1474 1475 1476 1476 1477 1478 1479 1480 1481 1483 1484
1497 1497 1496 1495 1494 1492 1490 1489 1487 1485 1483 1482 1480 1478 1476 1474 1473 1471 1469 1468 1468 1467 1467 1467 1467 1467 1468 1468 1469 1469 1470 1471 1471 1472 1473 1474 1474 1475 1476 1477 1478 1479 1480
1496 1496 1495 1494 1493 1491 1490 1489 1487 1485 1484 1482 1480 1478 1477 1475 1473 1472 1470 1469 1468 1467 1467 1466 1466 1466 1467 1467 1467 1468 1468 1468 1469 1470 1470 1471 1472 1473 1473 1474 1475 1476 1477
1495 1494 1494 1493 1492 1491 1490 1488 1487 1485 1484 1482 1481 1479 1477 1476 1474 1473 1471 1470 1469 1468 1467 1466 1466 1466 1466 1466 1466 1466 1466 1466 1467 1468 1468 1468 1469 1470 1470 1471 1472 1473 1473
1493 1493 1492 1492 1491 1490 1489 1488 1486 1485 1484 1482 1481 1479 1478 1476 1475 1473 1472 1470 1469 1468 1467 1466 1466 1465 1465 1464 1464 1464 1464 1464 1464 1465 1465 1465 1466 1467 1468 1469 1469 1470 1470
1491 1491 1491 1490 1490 1489 1488 1487 1486 1485 1483 1482 1481 1479 1478 1476 1475 1473 1472 1471 1469 1468 1468 1467 1466 1465 1464 1463 1463 1462 1462 1462 1462 1462 1462 1462 1463 1464 1464 1465 1466 1466 1467
1489 1489 1489 1489 1488 1488 1487 1486 1485 1484 1483 1481 1480 1479 1477 1476 1474 1473 1472 1470 1469 1468 1467 1467 1465 1464 1463 1462 1462 1461 1460 1460 1459 1459 1459 1459 1460 1460 1461 1461 1462 1463 1463
1487 1487 1487 1487 1487 1486 1486 1485 1484 1483 1482 1481 1479 1478 1476 1475 1474 1472 1471 1470 1469 1467 1467 1466 1465 1464 1463 1462 1461 1460 1459 1458 1457 1457 1457 1457 1457 1457 1458 1458 1459 1459 1460
1484 1485 1485 1485 1485 1485 1484 1483 1483 1482 1480 1479 1478 1477 1476 1474 1473 1472 1470 1469 1468 1467 1466 1465 1464 1463 1462 1461 1460 1459 1458 1457 1456 1455 1455 1454 1454 1454 1454 1455 1455 1456 1456
1482 1482 1482 1482 1482 1482 1482 1481 1480 1480 1479 1477 1476 1475 1474 1473 1472 1471 1469 1468 1467 1466 1465 1464 1463 1462 1461 1460 1459 1458 1456 1455 1454 1453 1453 1452 1452 1452 1452 1452 1452 1452 1453
1479 1479 1480 1480 1480 1479 1479 1479 1478 1477 1476 1475 1474 1473 1473 1472 1471 1470 1468 1467 1466 1465 1463 1462 1461 1460 1459 1459 1458 1457 1455 1454 1453 1452 1451 1450 1450 1449 1449 1449 1449 1449 1449
1476 1477 1477 1477 1477 1477 1476 1476 1475 1475 1474 1473 1472 1472 1470 1469 1469 1468 1467 1465 1464 1463 1462 1461 1460 1459 1458 1457 1456 1455 1454 1453 1452 1451 1450 1449 1448 1448 1447 1447 1446 1446 1446
1473 1474 1474 1474 1474 1474 1474 1473 1473 1472 1472 1471 1470 1469 1468 1468 1467 1466 1465 1464 1462 1462 1461 1460 1459 1458 1456 1455 1454 1453 1452 1451 1450 1449 1448 1447 1446 1445 1445 1444 1443 1443 1442
1470 1471 1471 1471 1471 1471 1471 1471 1471 1471 1470 1469 1468 1467 1466 1466 1465 1464 1463 1462 1461 1460 1459 1458 1457 1456 1455 1454 1453 1452 1451 1450 1448 1447 1446 1445 1444 1443 1442 1441 1440 1440 1439
1467 1467 1468 1468 1468 1469 1469 1468 1468 1468 1468 1467 1467 1466 1465 1464 1463 1462 1461 1460 1459 1458 1457 1456 1455 1455 1454 1453 1451 1450 1449 1448 1446 1445 1444 1443 1441 1440 1439 1438 1437 1436 1435
1463 1464 1465 1465 1466 1466 1466 1466 1466 1466 1466 1465 1465 1464 1463 1462 1461 1460 1459 1458 1457 1456 1455 1455 1454 1453 1452 1451 1449 1448 1447 1445 1444 1442 1441 1440 1438 1437 1435 1434 1433 1432 1431
1460 1461 1462 1463 1463 1463 1464 1464 1464 1464 1464 1463 1463 1462 1462 1461 1460 1459 1458 1457 1456 1455 1454 1453 1452 1451 1450 1448 1447 1445 1444 1442 1441 1439 1438 1436 1435 1433 1431 1430 1429 1427 1426
1457 1458 1459 1460 1461 1461 1462 1462 1462 1462 1462 1461 1461 1461 1460 1460 1459 1458 1457 1456 1455 1454 1453 1452 1450 1449 1448 1446 1444 1443 1441 1439 1437 1435 1434 1432 1430 1429 1427 1425 1424 1422 1420
1454 1456 1457 1458 1459 1459 1460 1460 1460 1460 1460 1460 1460 1460 1459 1458 1458 1457 1456 1455 1454 1453 1451 1450 1448 1447 1445 1443 1442 1439 1437 1435 1433 1431 1429 1427 1425 1424 1422 1420 1418 1416 1415
1451 1453 1454 1456 1457 1457 1458 1459 1459 1459 1459 1459 1459 1458 1458 1457 1456 1455 1454 1453 1452 1451 1449 1448 1446 1444 1442 1441 1438 1436 1434 1431 1429 1427 1424 1422 1420 1418 1416 1414 1412 1410 1408
1449 1450 1452 1453 1454 1455 1456 1457 1457 1458 1458 1457 1457 1457 1456 1455 1454 1453 1452 1451 1450 1448 1447 1445 1443 1441 1439 1437 1435 1432 1430 1427 1425 1422 1420 1417 1414 1412 1410 1408 1406 1404 1402
1446 1448 1450 1451 1452 1454 1454 1455 1456 1456 1456 1456 1455 1455 1454 1453 1452 1451 1450 1448 1447 1445 1443 1441 1439 1437 1435 1432 1430 1427 1425 1422 1419 1417 1414 1411 1409 1406 1404 1401 1399 1397 1395
1444 1446 1448 1449 1450 1452 1452 1453 1453 1454 1454 1453 1453 1453 1452 1451 1450 1448 1447 1445 1443 1441 1439 1437 1434 1432 1429 1427 1424 1421 1418 1416 1413 1410 1407 1404 1401 1399 1396 1394 1391 1389 1387